TimeCDT,TemperatureF,Dew PointF,Humidity,Sea Level PressureIn,VisibilityMPH,Wind Direction,Wind SpeedMPH,Gust SpeedMPH,PrecipitationIn,Events,Conditions,WindDirDegrees,DateUTC
12:52 AM,70.0,64.0,81,29.91,10.0,Calm,Calm,-,N/A,,Clear,0,2012-10-02 05:52:00
1:52 AM,69.1,63.0,81,29.91,10.0,Calm,Calm,-,N/A,,Clear,0,2012-10-02 06:52:00
2:52 AM,66.0,62.1,87,29.91,10.0,North,4.6,-,N/A,,Clear,350,2012-10-02 07:52:00
3:52 AM,66.9,62.1,84,29.91,10.0,WSW,3.5,-,N/A,,Clear,250,2012-10-02 08:52:00
4:52 AM,68.0,62.1,81,29.90,10.0,West,4.6,-,N/A,,Clear,260,2012-10-02 09:52:00
5:52 AM,66.0,61.0,84,29.91,10.0,West,3.5,-,N/A,,Clear,270,2012-10-02 10:52:00
6:52 AM,64.9,61.0,87,29.93,10.0,WNW,4.6,-,N/A,,Clear,300,2012-10-02 11:52:00
7:52 AM,66.2,62.6,88,29.93,10.0,West,4.6,-,N/A,,Clear,280,2012-10-02 12:52:00
8:52 AM,73.0,64.0,73,29.95,10.0,NW,4.6,-,N/A,,Clear,310,2012-10-02 13:52:00
9:52 AM,78.1,64.0,62,29.97,10.0,Calm,Calm,-,N/A,,Clear,0,2012-10-02 14:52:00
10:52 AM,84.0,61.0,46,29.97,10.0,WNW,8.1,-,N/A,,Clear,300,2012-10-02 15:52:00
11:52 AM,87.1,57.9,37,29.96,10.0,WNW,11.5,-,N/A,,Partly Cloudy,300,2012-10-02 16:52:00
12:52 PM,89.1,55.9,32,29.94,10.0,WNW,11.5,-,N/A,,Partly Cloudy,300,2012-10-02 17:52:00
2:52 PM,87.1,53.1,31,29.88,10.0,NW,12.7,19.6,N/A,,Mostly Cloudy,320,2012-10-02 19:52:00
3:52 PM,95.0,48.0,20,29.87,10.0,NNW,19.6,24.2,N/A,,Scattered Clouds,330,2012-10-02 20:52:00
4:52 PM,91.0,46.9,22,29.87,10.0,NW,15.0,21.9,N/A,,Scattered Clouds,310,2012-10-02 21:52:00
5:19 PM,91.4,46.4,21,29.87,10.0,NNW,12.7,19.6,N/A,,Scattered Clouds,340,2012-10-02 22:19:00
5:52 PM,90.0,45.0,21,29.88,10.0,North,15.0,-,N/A,,Scattered Clouds,10,2012-10-02 22:52:00
6:52 PM,84.9,43.0,23,29.90,10.0,North,8.1,-,N/A,,Clear,10,2012-10-02 23:52:00
7:52 PM,75.9,62.1,62,29.92,10.0,East,6.9,-,N/A,,Clear,80,2012-10-03 00:52:00
8:52 PM,73.4,62.6,69,29.95,10.0,East,6.9,-,N/A,,Clear,90,2012-10-03 01:52:00
9:52 PM,70.0,63.0,78,29.97,10.0,ESE,4.6,-,N/A,,Clear,110,2012-10-03 02:52:00
10:52 PM,69.1,63.0,81,29.98,10.0,ESE,6.9,-,N/A,,Clear,110,2012-10-03 03:52:00
11:52 PM,68.0,63.0,84,29.97,10.0,East,5.8,-,N/A,,Clear,90,2012-10-03 04:52:00